Owensboro, KY

9:11 PM CDT on July 20, 2017 (GMT -0500)
Owensboro-Daviess County

Weather History for KOWB - April, 2013

Change the Weather History Date:

Sunday, April 28, 2013

  Actual Average Record
Temperature  
Mean Temperature 58 °F -  
Max Temperature 61 °F 73 °F 87 °F (1951)
Min Temperature 54 °F 50 °F 33 °F (1934)
Degree Days  
Heating Degree Days 7    
Growing Degree Days 8 (Base 50)    
Moisture  
Dew Point 57 °F    
Average Humidity 94    
Maximum Humidity 100    
Minimum Humidity 83    
Precipitation  
Precipitation 0.00 in - - ()
Sea Level Pressure  
Sea Level Pressure 29.91 in    
Wind  
Wind Speed 9 mph (SW)    
Max Wind Speed 13 mph    
Max Gust Speed -    
Visibility 7 miles    
Events Rain , Thunderstorm    
Averages and records for this station are not official NWS values.
T = Trace of Precipitation, MM = Missing Value Source: NWS Daily Summary

Daily Weather History Graph

Daily Weather History Graph

Search for Another Location

Airport or City:

Trip Planner

Search our weather history database for the weather conditions in past years. The results will help you decide how hot, cold, wet, or windy it might be!

Date:

Astronomy

Apr. 28, 2013 Rise Set
Actual Time 5:56 AM CDT 7:36 PM CDT
Civil Twilight 5:28 AM CDT 8:04 PM CDT
Nautical Twilight 4:54 AM CDT 8:38 PM CDT
Astronomical Twilight 4:18 AM CDT 9:14 PM CDT
Moon 11:04 PM CDT (4/28) 8:14 AM CDT (4/28)
Length of Visible Light 14h 36m
Length of Day
13h 40m
Waning Gibbous, 88% of the Moon is Illuminated
Apr 28
Waning Gibbous
May 2
Last Quarter
May 9
New
May 17
First Quarter
May 24
Full

Hourly Weather History & Observations

Time (CDT) Temp. Dew Point Humidity Pressure Visibility Wind Dir Wind Speed Gust Speed Precip Events Conditions
12:18 AM 59.0 °F 57.2 °F 94% 29.91 in 10.0 mi SE 5.8 mph - N/A   Overcast
12:56 AM 59.0 °F 57.9 °F 96% 29.91 in 10.0 mi SSE 6.9 mph - N/A   Overcast
1:10 AM 59.0 °F 57.2 °F 94% 29.92 in 10.0 mi SSE 9.2 mph - N/A Thunderstorm Thunderstorm
1:39 AM 59.0 °F 57.2 °F 94% 29.90 in 10.0 mi SSE 8.1 mph - N/A   Overcast
1:56 AM 59.0 °F 57.9 °F 96% 29.89 in 10.0 mi SSE 9.2 mph - N/A   Overcast
2:16 AM 59.0 °F 57.2 °F 94% 29.90 in 10.0 mi SSE 10.4 mph - N/A   Overcast
2:56 AM 59.0 °F 57.9 °F 96% 29.88 in 10.0 mi South 9.2 mph - N/A   Overcast
3:56 AM 59.9 °F 59.0 °F 97% 29.87 in 10.0 mi South 11.5 mph - N/A   Overcast
4:20 AM 60.8 °F 60.8 °F 100% 29.88 in 10.0 mi SSW 11.5 mph - N/A Thunderstorm Overcast
4:35 AM 60.8 °F 60.8 °F 100% 29.88 in 10.0 mi SSW 11.5 mph - 0.00 in Rain Light Rain
4:56 AM 59.9 °F 59.0 °F 97% 29.87 in 10.0 mi South 11.5 mph - 0.00 in   Overcast
5:27 AM 60.8 °F 59.0 °F 94% 29.87 in 10.0 mi South 11.5 mph - N/A   Overcast
5:56 AM 59.0 °F 57.9 °F 96% 29.88 in 10.0 mi WSW 9.2 mph - 0.00 in   Overcast
6:03 AM 59.0 °F 59.0 °F 100% 29.88 in 10.0 mi SSW 8.1 mph - N/A   Overcast
6:56 AM 59.0 °F 59.0 °F 100% 29.89 in 10.0 mi SSW 8.1 mph - N/A   Overcast
7:37 AM 59.0 °F 59.0 °F 100% 29.90 in 1.8 mi SW 9.2 mph - 0.00 in Rain Light Rain
7:49 AM 59.0 °F 59.0 °F 100% 29.90 in 2.5 mi SW 9.2 mph - 0.00 in Rain Light Rain
7:56 AM 59.0 °F 59.0 °F 100% 29.91 in 1.0 mi WNW 11.5 mph - 0.00 in Rain Light Rain
8:56 AM 57.9 °F 57.9 °F 100% 29.92 in 1.0 mi West 8.1 mph - 0.00 in Rain Light Rain
8:58 AM 57.2 °F 57.2 °F 100% 29.92 in 1.0 mi West 8.1 mph - 0.00 in Rain Light Rain
9:56 AM 57.9 °F 56.8 °F 96% 29.93 in 3.0 mi West 8.1 mph - 0.00 in   Overcast
10:56 AM 59.0 °F 56.8 °F 93% 29.93 in 3.0 mi West 12.7 mph - N/A   Overcast
11:56 AM 59.0 °F 54.9 °F 86% 29.93 in 7.0 mi West 10.4 mph - N/A   Overcast
12:56 PM 59.9 °F 55.9 °F 87% 29.93 in 7.0 mi WSW 12.7 mph - N/A   Overcast
1:56 PM 61.0 °F 55.9 °F 83% 29.94 in 7.0 mi SW 10.4 mph - N/A   Overcast
2:56 PM 59.9 °F 54.9 °F 83% 29.93 in 10.0 mi WSW 11.5 mph - N/A   Overcast
3:56 PM 59.0 °F 54.9 °F 86% 29.91 in 10.0 mi West 12.7 mph - N/A   Overcast
4:56 PM 57.9 °F 54.9 °F 90% 29.92 in 10.0 mi West 11.5 mph - N/A   Overcast
5:15 PM 57.2 °F 55.4 °F 94% 29.93 in 6.0 mi West 11.5 mph - N/A   Overcast
5:56 PM 57.9 °F 54.9 °F 90% 29.93 in 7.0 mi West 6.9 mph - N/A   Overcast
6:05 PM 57.2 °F 55.4 °F 94% 29.93 in 6.0 mi West 6.9 mph - N/A   Overcast
6:56 PM 57.9 °F 54.9 °F 90% 29.93 in 6.0 mi West 8.1 mph - N/A   Overcast
7:03 PM 57.2 °F 55.4 °F 94% 29.93 in 6.0 mi West 6.9 mph - N/A   Overcast
7:56 PM 56.8 °F 54.9 °F 93% 29.94 in 6.0 mi WSW 4.6 mph - N/A   Overcast
8:04 PM 57.2 °F 55.4 °F 94% 29.94 in 7.0 mi WSW 5.8 mph - N/A   Overcast
8:56 PM 56.8 °F 54.9 °F 93% 29.96 in 7.0 mi West 3.5 mph - N/A   Overcast
9:56 PM 56.8 °F 54.9 °F 93% 29.96 in 10.0 mi West 5.8 mph - N/A   Overcast
10:56 PM 55.9 °F 54.9 °F 96% 29.95 in 8.0 mi West 5.8 mph - N/A   Overcast
11:56 PM 54.9 °F 54.0 °F 97% 29.95 in 7.0 mi West 3.5 mph - N/A   Overcast